Location: ?ernice
(48.8383°N, 14.3803°E)
Time: 21:48:07
(UTC+00:00)

COSMOS 2428 - Pass Details

Date: 23 May 2024
Orbit: 844 x 856 km, 70.9° (Epoch: 20 June)

Event Time Altitude Azimuth Distance (km) Brightness Sun altitude
Rises 01:57:32 0° 333° (NNW) 3,415 6.2 -10.0°
Reaches altitude 10° 02:00:04 10° 339° (NNW) 2,477 5.5 -9.7°
Maximum altitude 02:05:37 52° 55° (NE) 1,048 3.7 -9.1°
Drops below altitude 10° 02:11:09 10° 132° (SE) 2,468 5.2 -8.4°
Sets 02:13:39 0° 137° (SE) 3,402 5.8 -8.2°
